User: anonymous   Login
Location: Newark
(25.0000°N, 73.5000°E)
Time: 01:58:57
(UTC+00:00)
Language:

SR - Orbit

View from above orbital plane
View from above orbital plane
View from above satellite
View from above satellite

Ground track
Ground track

The orbit data is extracted from the following two-line orbital elements,

1 00046U 60007B   21215.15432472  .00000088  00000-0  40413-4 0  9994
2 00046  66.6912  13.9702 0210982 186.3338 173.5099 14.49421666198777
Epoch (UTC): 03 August 2021 03:42:13
Eccentricity: 0.0210982
inclination: 66.6912°
perigee height: 577 km
apogee height: 877 km
right ascension of ascending node: 13.9702°
argument of perigee: 186.3338°
revolutions per day: 14.49421666
mean anomaly at epoch: 173.5099°
orbit number at epoch: 19877

The dashed part of the orbit path shows where the satellite is in the earth's shadow,  

DLR